TimeCST,TemperatureF,Dew PointF,Humidity,Sea Level PressureIn,VisibilityMPH,Wind Direction,Wind SpeedMPH,Gust SpeedMPH,PrecipitationIn,Events,Conditions,WindDirDegrees,DateUTC
12:53 AM,33.1,32.0,96,30.40,10.0,Calm,Calm,-,N/A,,Clear,0,2013-01-19 06:53:00
1:53 AM,34.0,32.0,92,30.40,9.0,Calm,Calm,-,N/A,,Clear,0,2013-01-19 07:53:00
2:53 AM,33.1,32.0,96,30.38,10.0,SSE,4.6,-,N/A,,Clear,160,2013-01-19 08:53:00
3:53 AM,34.0,30.9,89,30.37,10.0,SSE,4.6,-,N/A,,Clear,150,2013-01-19 09:53:00
4:53 AM,36.0,32.0,86,30.37,10.0,SSE,6.9,-,N/A,,Clear,160,2013-01-19 10:53:00
5:53 AM,35.1,30.9,85,30.37,10.0,SSE,5.8,-,N/A,,Clear,160,2013-01-19 11:53:00
6:53 AM,34.0,30.0,85,30.37,10.0,South,6.9,-,N/A,,Clear,170,2013-01-19 12:53:00
7:53 AM,33.1,28.9,85,30.38,10.0,South,4.6,-,N/A,,Clear,170,2013-01-19 13:53:00
8:53 AM,39.0,35.1,86,30.38,10.0,South,8.1,-,N/A,,Clear,190,2013-01-19 14:53:00
9:53 AM,45.0,37.0,74,30.40,10.0,South,6.9,-,N/A,,Clear,180,2013-01-19 15:53:00
10:53 AM,52.0,39.0,61,30.38,10.0,SSW,4.6,-,N/A,,Clear,210,2013-01-19 16:53:00
11:53 AM,55.0,35.1,47,30.34,10.0,SW,8.1,-,N/A,,Clear,230,2013-01-19 17:53:00
12:53 PM,57.0,34.0,42,30.31,10.0,WSW,10.4,-,N/A,,Clear,240,2013-01-19 18:53:00
1:53 PM,57.9,35.1,42,30.28,10.0,SSW,10.4,-,N/A,,Clear,210,2013-01-19 19:53:00
2:53 PM,57.9,32.0,37,30.26,10.0,SW,6.9,-,N/A,,Clear,230,2013-01-19 20:53:00
3:53 PM,57.0,37.9,49,30.26,10.0,SW,9.2,-,N/A,,Clear,220,2013-01-19 21:53:00
4:53 PM,52.0,37.9,59,30.27,10.0,SSW,6.9,-,N/A,,Clear,200,2013-01-19 22:53:00
5:53 PM,50.0,39.0,66,30.26,10.0,SSE,5.8,-,N/A,,Clear,160,2013-01-19 23:53:00
6:53 PM,46.0,39.0,76,30.26,10.0,South,8.1,-,N/A,,Clear,180,2013-01-20 00:53:00
7:53 PM,46.0,37.9,73,30.26,10.0,South,6.9,-,N/A,,Clear,180,2013-01-20 01:53:00
8:53 PM,42.1,37.0,82,30.27,10.0,South,5.8,-,N/A,,Clear,180,2013-01-20 02:53:00
9:53 PM,44.1,37.0,76,30.27,10.0,SSW,3.5,-,N/A,,Clear,200,2013-01-20 03:53:00
10:53 PM,39.9,36.0,86,30.27,10.0,SSW,4.6,-,N/A,,Clear,210,2013-01-20 04:53:00
11:53 PM,39.9,35.1,83,30.27,10.0,SW,3.5,-,N/A,,Clear,230,2013-01-20 05:53:00